Weather in Harvest

Russia / Republic of Crimea     45°20′02″N   35°04′06″E
temp.,
°C
wind,
m/s
gust,
m/s
humid.,
%
clouds,
%
prec.,
mm/h
press.,
hPa
HPBL,
m
2 march, tue
tue200:00+1nw228914 0.0 102938
03:000w349335 0.0 103080
06:000w349362 0.0 103090
09:00+1wnw348132 0.0 1031241
12:00+5wnw45540 0.0 10301077
15:00+7w57501 0.0 10291205
18:00+5w695915 0.0 1026649
21:00+3w6127538 0.0 1026658
3 march, wed
wed300:00+3wsw8157523 0.0 1024561
03:00+4w9167852 0.0 1023728
06:00+3nw61175100 0.0 1022713
09:00+4nw7107693 0.1 10241015
12:00+5nnw796562 0.0 1025976
15:00+8nnw684934 0.0 10261343
18:00+6nw47510 0.0 1027467
21:00+4wnw33600 0.0 102854
4 march, thu
thu400:00+2wsw34735 0.0 102869
03:00+2wsw34752 0.0 102869
06:00+1sw34700 0.0 102653
09:00+5ssw23580 0.0 1026116
12:00+9sw34440 0.0 10241183
15:00+11w34370 0.0 10221439
18:00+8sw36590 0.0 1020265
21:00+4ssw35770 0.0 1020125
5 march, fri
fri500:00+3ssw23820 0.0 101965
03:00+2ssw34850 0.0 101873
06:00+2ssw23870 0.0 101749
09:00+5s46760 0.0 1017211
12:00+11ssw46510 0.0 1015482
15:00+12s57503 0.0 1014509
18:00+9s586751 0.0 1013247
21:00+7ssw348174 0.0 101483
6 march, sat
sat600:00+6sw348564 0.0 101463
03:00+6wsw347368 0.0 101473
06:00+5wnw237595 0.0 101445
09:00+5n468998 0.0 1016349
12:00+4nnw5685100 0.0 1017407
15:00+2n4790100 1.1 1018515
18:00+4nnw5856100 0.1 10191056
21:00+3nnw4955100 0.1 1022540